Regional Weather Roundup
Issued by NWS

Home | Current Version | Previous Version | Text Only | Print | Product List | Glossary Off
Versions: 1 2 3 4 5 6 7 8 9 10 11 12 13 14 15 16 17 18 19 20 21 22 23 24 25 26 27 28 29 30 31 32 33 34 35 36 37 38 39 40 41 42 43 44 45 46 47 48 49 50

000
ASUS43 KDTX 290910
RWRMI
MICHIGAN HOURLY REGIONAL WEATHER ROUNDUP
NATIONAL WEATHER SERVICE DETROIT/PONTIAC MI
500 AM EDT WED JUL 29 2015

NOTE: "FAIR" INDICATES FEW OR NO CLOUDS BELOW 12,000 FEET WITH NO
SIGNIFICANT WEATHER AND/OR OBSTRUCTION TO VISIBILITY.

MIZ047>049-052>055-059>063-066>070-074>076-081>083-291000-
SOUTHEAST LOWER MICHIGAN

CITY           SKY/WX    TMP DP  RH WIND       PRES   REMARKS
ADRIAN         PTCLDY    66  64  93 CALM      29.97S
ALMA           PTCLDY    67  63  86 CALM      29.94R
ANN ARBOR      PTCLDY    63  62  97 CALM      29.95F
BAD AXE        CLEAR     63  60  90 CALM      29.95F
CARO           CLEAR     61  60  99 CALM      29.93F FOG
DETROIT CITY   CLEAR     70  62  76 CALM      29.96F
DETROIT        CLOUDY    70  66  87 CALM      29.95F
FLINT          CLEAR     68  62  81 S5        29.94F
GROSSE ILE     CLEAR     70  66  88 CALM      29.94F
HILLSDALE      PTCLDY    72  65  78 S3        29.97S
HOWELL         PTCLDY    68  65  90 CALM      29.95F

CITY           SKY/WX    TMP DP  RH WIND       PRES   REMARKS
JACKSON        MOCLDY    73  62  68 S7        29.96R
LAMBERTVILLE   PTCLDY    68  66  92 CALM      29.95F FOG
LANSING        CLEAR     73  60  63 S7        29.94F
LAPEER         FAIR      58  58 100 CALM      29.96F
MASON          PTCLDY    67  62  85 S3        29.95S
MONROE         FOG       64  64  99 CALM      29.94F VSB 1/2
MT. CLEMENS    CLEAR     65  64  93 CALM      29.94F
PONTIAC        CLEAR     65  63  93 CALM      29.95F
PORT HOPE        N/A     71  63  75 SW5       29.92F
PORT HURON     FOG       61  61 100 CALM      29.96F VSB 1/2
TRI CITIES     CLEAR     71  62  73 S6        29.94F
MIDLAND        FAIR      70  63  78 S3        29.92S
TROY           CLEAR     70  65  82 CALM      29.97F
SAGINAW HB     CLEAR     64  61  88 S3        29.93S
$$
MIZ043>046-050>051-056>058-064>065-071>073-077>080-291000-
SOUTHWEST LOWER MICHIGAN

CITY           SKY/WX    TMP DP  RH WIND       PRES   REMARKS
BATTLE CREEK   CLEAR     74  62  66 S8        29.95R
BENTON HARBOR  CLOUDY    75  69  81 S3        29.92R
BIG RAPIDS     CLOUDY    68  65  88 CALM      29.93R
COLDWATER      CLEAR     70  62  76 SE7       29.96R
FREMONT        FAIR      72  66  82 CALM      29.92R
HOLLAND        MOCLDY    74  66  76 S5        29.93R
GRAND RAPIDS   MOCLDY    74  65  73 S5        29.93R
IONIA          FAIR      71  62  72 S6        29.93R
KALAMAZOO      PTCLDY    73  64  73 S6        29.95R
LUDINGTON      PTCLDY    76  69  77 S5        29.90S
MARSHALL       CLEAR     72  62  70 S6        29.94S
MOUNT PLEASANT MOCLDY    70  62  75 S3        29.93R
MUSKEGON       MOCLDY    76  65  68 S5        29.92R
SOUTH HAVEN    MOCLDY    74  67  76 S5        29.93R
$$
MIZ016>042-291000-
NORTHERN LOWER MICHIGAN

CITY           SKY/WX    TMP DP  RH WIND       PRES   REMARKS
ALPENA         CLEAR     65  61  87 SE3       29.91F
BEAVER ISLAND  MOCLDY    71  64  79 SE5       29.86S
BELLAIRE       MOCLDY    73  63  70 CALM      29.89R
CADILLAC       MOCLDY    74  63  69 S9        29.93S
CHARLEVOIX     MOCLDY    72  63  73 S5        29.90S
FRANKFORT      PTCLDY    75  66  72 S3        29.88R
GAYLORD        MOCLDY    73  66  78 S9        29.93F
GRAYLING       PTCLDY    62  60  94 N3        29.94S
HARBOR SPRINGS MOCLDY    70  63  77 CALM      29.87F
HOUGHTON LAKE  PTCLDY    72  63  73 S7        29.94S
MANISTEE       PTCLDY    68  61  77 CALM      29.89S
OSCODA         CLEAR     67  65  94 CALM      29.91F
PELLSTON       MOCLDY    70  62  76 SE3       29.88F
ROGERS CITY    PTCLDY    72  66  82 S8        29.90F
TRAVERSE CITY  MOCLDY    75  63  66 CALM      29.86F
$$
MIZ007>008-015-291000-
EASTERN UPPER MICHIGAN

CITY           SKY/WX    TMP DP  RH WIND       PRES   REMARKS
KINROSS        MOCLDY    72  64  78 S6        29.87F
MACKINAC ISLAN MOCLDY    73  63  71 S10       29.86F
MUNISING         N/A     72  65  78 S6        29.79F
$$
MIZ004>006-011>014-085-291000-
CENTRAL UPPER MICHIGAN

CITY           SKY/WX    TMP DP  RH WIND       PRES   REMARKS
MANISTIQUE     MOCLDY    70  64  83 S6        29.83S
ESCANABA       PTCLDY    72  68  88 S9        29.81S
MENOMINEE      CLOUDY    73  66  78 SW7       29.83S
SAWYER-GWINN   CLOUDY    68  64  86 S12       29.81S
$$
MIZ001>003-009>011-084-291000-
WESTERN UPPER MICHIGAN

CITY           SKY/WX    TMP DP  RH WIND       PRES   REMARKS
IRON MOUNTAIN  CLOUDY    70  66  87 VRB3      29.81S
HOUGHTON       CLOUDY    72  64  76 W13       29.75S
COPPER HARBOR    N/A     76  67  73 NW8G21    29.72S
IRONWOOD       PTCLDY    68  54  60 SW13G20   29.78S
$$

ABBREVIATIONS USED IN REMARKS
   TC - TEMPERATURE IN CELSIUS
  WCI - WIND CHILL INDEX
   HX - HEAT INDEX
  VSB - VISIBILITY




USA.gov is the U.S. government's official web portal to all federal, state and local government web resources and services.